Regional Weather Roundup
Issued by NWS

Current Version | Previous Version | Text Only | Print | Product List | Glossary On
Versions: 1 2 3 4 5 6 7 8 9 10 11 12 13 14 15 16 17 18 19 20 21 22 23 24 25 26 27
000
ASUS42 KTBW 270817
RWRFL
FLORIDA REGIONAL WEATHER ROUNDUP
NATIONAL WEATHER SERVICE TAMPA BAY RUSKIN FL
400 AM EDT THU JUL 27 2017

NOTE: "FAIR" INDICATES FEW OR NO CLOUDS BELOW 12,000 FEET WITH NO
SIGNIFICANT WEATHER AND/OR OBSTRUCTIONS TO VISIBILITY.

FLZ001>010-012>015-112-114-115-270900-
PANHANDLE FLORIDA

CITY           SKY/WX    TMP DP  RH WIND       PRES   REMARKS
PENSACOLA      CLEAR     77  71  82 N7        30.01F
PENSACOLA NAS  CLEAR     75  72  90 NW5       30.01F
MILTON NAS     CLEAR     72  72 100 CALM      30.03
CRESTVIEW      CLEAR     75  72  90 CALM      30.02F
DUKE FIELD     FAIR      74  71  91 W3          N/A
VALPARAISO     PTCLDY    74  70  88 NW3       30.00F
MARY ESTHER    CLEAR     74  73  95 N7        29.99F
PANAMA CITY    FAIR      76  72  87 N5        29.99F
TYNDALL AFB    CLOUDY    78  72  82 N3        30.00S
APALACHICOLA   CLOUDY    79  78  97 CALM      29.99S

STATION/POSITION SKY/WX   TEMP    WIND        PRES    WAVE   SWELL
                          AIR SEA DIR/SP/G            HT/PER HT/PER
                          (F)     (DEG/KT/KT) (MB)    (FT/S) (FT/S)
30.1N   87.6W              83 85  330/  8/  8 1016.1F   1
29.2N   88.2W              85 85  320/  8/  8 1016.5
28.8N   86.0W              84 86  290/  8/ 10 1015.6F   1/ 4
PANAMA CITY BEAC           76      20/  4/  4 1016.2F
TOWER C                    82                 1016.5R
28.5N   84.5W              83 86  260/  6/  8 1016.2R   1/ 5   2/ 5

$$
FLZ011-016>038-118-127-128-134-139-239-270900-
NORTH FLORIDA

CITY           SKY/WX    TMP DP  RH WIND       PRES   REMARKS
MARIANNA       CLEAR     76  74  93 NW3       29.99F
TALLAHASSEE    MOCLDY    77  73  87 NE5       30.01S
PERRY          MOCLDY    74  73  96 CALM      30.02R
LIVE OAK       CLOUDY    75  75 100 CALM      30.03S
CROSS CITY     CLOUDY    76  74  96 CALM      30.05F
LAKE CITY      CLOUDY    73  73 100 CALM      30.02S
GAINESVILLE    CLOUDY    77  75  93 S7        30.03F
WILLISTON      CLEAR     79  77  94 CALM      30.02F
PALATKA        MOCLDY    75  75 100 CALM      30.01F
MAYPORT NAS    MOCLDY    78  77  96 CALM      30.00S
JACKSONVILLE   CLOUDY    76  76 100 CALM      30.00S FOG
JAX NAS        CLOUDY    80  77  90 S5        30.00F
JAX CECIL      CLOUDY    75  75 100 NW3       30.01R
FERNANDINA BEA CLOUDY    79  77  94 CALM      29.99S
ST AUGUSTINE   CLOUDY    79  76  90 SW6       30.01F
PALM COAST     FAIR      78  24  13 SW3       30.02S

STATION/POSITION SKY/WX   TEMP    WIND        PRES    WAVE   SWELL
                          AIR SEA DIR/SP/G            HT/PER HT/PER
                          (F)     (DEG/KT/KT) (MB)    (FT/S) (FT/S)
SHELL POINT      NOT AVBL
KEATON BEACH               75      70/  6/  6 1015.8F
CEDAR KEY                  81      60/  5/  6 1016.6F
FERNANDINA                 77 79   CALM  /  3 1016.7F
30.7N   81.3W                 79                N/A     2/11
MAYPORT                    78 79  160/  2/  3 1016.2F
31.4N   80.9W              73 80   30/  8/ 10 1016.6F   2/10   2/10
ST AUGUSTINE               79 75  210/  6/  7 1016.0F

$$
FLZ040-043>046-052-053-057-058-063-144-270900-
INTERIOR CENTRAL FLORIDA

CITY           SKY/WX    TMP DP  RH WIND       PRES   REMARKS
OCALA          CLOUDY    76  74  93 CALM      30.03F
THE VILLAGES     N/A     77  77 100 CALM      29.93S
LEESBURG       PTCLDY    80  76  87 SW3       30.03S
SANFORD        PTCLDY    80  76  87 S6        30.01F
ORLANDO EXEC   MOCLDY    80  78  94 SE6       30.02F
ORLANDO INTL   MOCLDY    78  78 100 SE6       30.02F
KISSIMMEE      PTCLDY    79  77  94 S3        30.03S
WINTER HAVEN   PTCLDY    77  71  82 CALM      30.03S
LAKELAND       CLOUDY    77  72  83 SW3       30.03S
BARTOW         FAIR      73  73 100 CALM      30.02F
SEBRING        FAIR      77  72  84 CALM      30.03S
OKEECHOBEE     CLEAR     79  73  83 S5        30.03S

$$
FLZ041-047-054-059-064-141-147-270900-
EAST CENTRAL FLORIDA

CITY           SKY/WX    TMP DP  RH WIND       PRES   REMARKS
DAYTONA BEACH  PTCLDY    80  77  90 S7        30.01F
DELAND         CLOUDY    81  75  83 S5        30.02S
JFK SPACE CTR  PTCLDY    81  77  90 S8        30.01F
CAPE CANAVERAL PTCLDY    81  78  92 S7        30.01F
PATRICK AFB    CLEAR     82  78  88 S13       30.01F
MELBOURNE      CLEAR     81  77  88 S6        30.02F
VERO BEACH     CLEAR     80  76  87 SW3       30.03S
FT PIERCE      CLEAR     78  77  96 CALM      30.03S
STUART         CLEAR     81  81 100 S3        30.04S

STATION/POSITION SKY/WX   TEMP    WIND        PRES    WAVE   SWELL
                          AIR SEA DIR/SP/G            HT/PER HT/PER
                          (F)     (DEG/KT/KT) (MB)    (FT/S) (FT/S)
28.5N   80.2W              83 82  190/  8/ 10 1017.7
28.9N   78.5W              85 85  170/  8/ 10 1017.0R   2/ 8   2/ 8
TRIDENT PIER               81 83  170/  9/ 12 1018.2F
28.4N   80.5W                 81                N/A     2/ 3
27.5N   80.2W                 79                N/A     1/ 8

$$
FLZ050-056-061-142-242-148-248-149-249-151-251-155-255-
160-260-270900-
WEST CENTRAL FLORIDA

CITY           SKY/WX    TMP DP  RH WIND       PRES   REMARKS
CRYSTAL RIVER  CLOUDY    75  73  94 CALM      30.03S
INVERNESS      FAIR      73  73 100 CALM      30.04R FOG
BROOKSVILLE    MOCLDY    76  74  93 CALM      30.03S
CLEARWATER AIR MOCLDY    79  77  94 CALM      30.01S
ST PETE CLEARW PTCLDY    81  76  84 CALM      30.01S
TAMPA INTL     PTCLDY    84  76  76 CALM      30.02S
TAMPA EXEC     MOCLDY    79  75  89 CALM      30.02S FOG
PLANT CITY     CLOUDY    79  75  89 S3        30.04S
MACDILL AFB    CLOUDY    81  79  95 CALM      30.01S
PETER O KNIGHT MOCLDY    82  81  94 S3        30.01S HX  95
ST PETERSBURG  PTCLDY    84  76  76 S5        29.99F
SARASOTA       CLOUDY    82  74  76 SE6       29.99F
VENICE         FAIR      84  77  79 S6        30.00F

STATION/POSITION SKY/WX   TEMP    WIND        PRES    WAVE   SWELL
                          AIR SEA DIR/SP/G            HT/PER HT/PER
                          (F)     (DEG/KT/KT) (MB)    (FT/S) (FT/S)
27.3N   84.2W                 86                N/A     1/ 4
CLEARWATER BEACH           83 89  120/  4/  5 1016.5R
MIDDLE TAMPA BAY           82     190/  8/ 10 1016.1F
VENICE                     83 88  180/ 14/ 16 1016.9F

$$
FLZ066-069-070-075>078-162-262-165-265-270900-
SOUTHWEST FLORIDA AND KEYS

CITY           SKY/WX    TMP DP  RH WIND       PRES   REMARKS
PUNTA GORDA    CLOUDY    77  75  93 CALM      30.02F
FT MYERS       MOCLDY    79  74  84 CALM      30.01F
SOUTHWEST INTL MOCLDY    79  75  87 NW3       30.02F
NAPLES         CLOUDY    79  75  87 NE3       30.02F
MARCO ISLAND   CLOUDY    79  75  89 CALM      30.02F
IMMOKALEE      FAIR      77  75  94 S3        30.03F
MARATHON       PTCLDY    85  77  77 E5        30.00F HX  95
KEY WEST NAS   CLEAR     83  79  88 NE5       30.01F
KEY WEST INTL  CLEAR     84  78  82 N3        30.01F HX  95

STATION/POSITION SKY/WX   TEMP    WIND        PRES    WAVE   SWELL
                          AIR SEA DIR/SP/G            HT/PER HT/PER
                          (F)     (DEG/KT/KT) (MB)    (FT/S) (FT/S)
NAPLES                        89   30/  1/  3 1016.6F
DRY TORTUGAS               84     120/ 16/ 18 1016.3F
SAND KEY                   84                 1016.9F

$$
FLZ067-068-071>074-168-172>174-270900-
SOUTHEAST FLORIDA

CITY           SKY/WX    TMP DP  RH WIND       PRES   REMARKS
W PALM BEACH   PTCLDY    80  75  84 NW5       30.04F
FT LAUDER-EXEC CLEAR     81  74  79 NW3       30.03S
FT LAUDERDALE  PTCLDY    84  76  76 SE3       30.02F
POMPANO BEACH  PTCLDY    84  76  76 CALM      30.03S
PEMBROKE PINES CLEAR     81  76  84 N3        30.04F
OPA LOCKA      CLEAR     82  78  88 CALM      30.03F
MIAMI          PTCLDY    83  73  72 CALM      30.02F
WEST KENDALL   CLEAR     81  75  82 CALM      30.02F
HOMESTEAD      CLEAR     80  77  88 CALM      30.01F

STATION/POSITION SKY/WX   TEMP    WIND        PRES    WAVE   SWELL
                          AIR SEA DIR/SP/G            HT/PER HT/PER
                          (F)     (DEG/KT/KT) (MB)    (FT/S) (FT/S)
PORT EVERGLADES            85     100/  3/  6 1016.7F
VIRGINIA KEY               85 89   90/  6/  8 1016.0F
LAKE WORTH                        150/  6/  8   N/A
FOWEY ROCKS                85 85   90/  6/  7 1017.3R
SETTLEMENT POINT           82     130/  5/  6 1017.2S

$$





USA.gov is the U.S. government's official web portal to all federal, state and local government web resources and services.